Regional Weather Roundup
Issued by NWS

Home | Current Version | Previous Version | Graphics & Text | Print | Product List | Glossary On
Versions: 1 2 3 4 5 6 7 8 9 10 11 12 13 14 15 16 17 18 19 20 21 22 23 24 25 26 27 28 29 30 31 32 33 34 35 36 37 38 39 40 41 42 43 44 45 46 47 48 49 50
000
ASUS45 KSLC 011510
RWRUT

UTAH REGIONAL WEATHER ROUNDUP
NATIONAL WEATHER SERVICE SALT LAKE CITY UT
900 AM MDT WED OCT 01 2014

UTZ001>011-023>025-011600-

NORTHERN UTAH

CITY           SKY/WX    TMP DP  RH WIND       PRES   REMARKS
HILL AFB       MOSUNNY   45  35  67 CALM      30.06R
LOGAN          NOT AVBL
OGDEN          PTSUNNY   45  39  79 CALM      30.05R
PROVO AIRPORT  PTSUNNY   48  34  57 NW12G21   30.04
SALT LAKE CITY PTSUNNY   50  36  58 W9        30.05R
VERNAL         CLOUDY    48  43  82 SE6       29.97R
WENDOVER       SUNNY     48  30  49 NW20G29   30.10S
HEBER CITY     PTSUNNY   45  32  61 NE3       30.03S
WEST JORDAN    SUNNY     45  34  65 CALM      30.07R

$$

UTZ012>022-026-027-011600-

SOUTHERN UTAH

CITY           SKY/WX    TMP DP  RH WIND       PRES   REMARKS
BRYCE CANYON   CLOUDY    43  39  86 NW5       30.08R
CEDAR CITY     CLOUDY    46  43  89 N9        30.06R
MILFORD        CLOUDY    48  39  71 N10       30.08R
MOAB/CYNLANDS  LGT RAIN  50  46  86 E8        29.95S
PRICE          MOSUNNY   49  37  63 N13       29.99S
ST GEORGE      MOSUNNY   63  43  48 S8        29.94R
KANAB            N/A     52  41  66 NW9       30.03R

$$

REGIONAL REPORTS     COLORADO/ARIZONA

CITY           SKY/WX    TMP DP  RH WIND       PRES   REMARKS
CRAIG, CO      RAIN      38  34  85 SE9       30.02S WCI  31
GRAND JUNCTION RAIN      44  44 100 SW5       30.01R FOG
RIFLE          LGT RAIN  44  41  89 E3        30.00R
MONTROSE       CLOUDY    46  43  89 NW15      30.03R
CORTEZ         PTSUNNY   50  43  77 CALM      29.98R
PAGE, AZ       NOT AVBL
GRAND CANYON   SUNNY     48  39  71 NE3       30.06R
KINGMAN        SUNNY     65  41  41 SE9       29.91R
FLAGSTAFF      SUNNY     52  36  54 W3        30.09R

$$

REGIONAL REPORTS    NEVADA/IDAHO/WYOMING

CITY           SKY/WX    TMP DP  RH WIND       PRES   REMARKS
LAS VEGAS, NV  SUNNY     71  39  31 S6        29.85R
ELY            SUNNY     40  31  70 NW6       30.14R
ELKO           SUNNY     36  29  75 E5        30.16R WCI  32
POCATELLO, ID  MOSUNNY   43  40  89 SW14      30.08R
BURLEY         PTSUNNY   43  39  86 SW10      30.10S
EVANSTON, WY   MOSUNNY   37  29  72 W9        30.05R WCI  30
ROCK SPRINGS   CLOUDY    37  33  85 W7        30.01R WCI  32

$$



USA.gov is the U.S. government's official web portal to all federal, state and local government web resources and services.